Pian Rosa, Italy

3:08 PM CET on February 11, 2016 (GMT +0100)
Pian Rosa

Weather History for LIMH - July, 2014

Change the Weather History Date:

Thursday, July 3, 2014

  Actual Average Record
Temperature  
Mean Temperature 50 °F -  
Max Temperature 72 °F 38 °F 72 °F (2014)
Min Temperature 27 °F 29 °F 19 °F (1996)
Degree Days  
Heating Degree Days 16    
Moisture  
Dew Point 15 °F    
Average Humidity 42    
Maximum Humidity 81    
Minimum Humidity 4    
Precipitation  
Precipitation 0.00 in - - ()
Sea Level Pressure  
Sea Level Pressure 30.61 in    
Wind  
Wind Speed 11 mph ()    
Max Wind Speed 25 mph    
Max Gust Speed -    
Visibility 7.1 miles    
Events      
Averages and records for this station are not official NWS values.
T = Trace of Precipitation, MM = Missing Value Source: Averaged Metar Reports

Daily Weather History Graph

Daily Weather History Graph

Search for Another Location

Airport or City:

Trip Planner

Search our weather history database for the weather conditions in past years. The results will help you decide how hot, cold, wet, or windy it might be!

Date:

Astronomy

Jul. 03, 2014 Rise Set
Actual Time 5:43 AM CEST 9:22 PM CEST
Civil Twilight 5:05 AM CEST 10:00 PM CEST
Nautical Twilight 4:14 AM CEST 10:51 PM CEST
Astronomical Twilight 3:05 AM CEST 12:00 AM CEST
Moon 11:47 AM CEST (7/3) No Moon Set
Length of Visible Light 16h 55m
Length of Day
15h 39m
Waxing Crescent, 30% of the Moon is Illuminated
Jul 3
Waxing Crescent
Jul 5
First Quarter
Jul 12
Full
Jul 19
Last Quarter
Jul 27
New

Hourly Weather History & Observations

Time (CEST) Temp. Windchill Dew Point Humidity Pressure Visibility Wind Dir Wind Speed Gust Speed Precip Events Conditions
12:00 AM 28 °F - 24 °F 80%  in 6 mi East 15.0 mph - -  
12:55 AM 28.4 °F 15.1 °F 23.0 °F 80% 30.51 in - ENE 20.7 mph - N/A   Clear
1:00 AM 28 °F - 24 °F 78%  in 6 mi ENE 20.7 mph - -  
1:55 AM 28.4 °F 16.6 °F 14.0 °F 55% 30.51 in - ENE 16.1 mph - N/A   Clear
2:00 AM 28 °F - 13 °F 40%  in 6 mi ENE 16.1 mph - -   Partly Cloudy
2:55 AM 30.2 °F 17.4 °F 5.0 °F 34% 30.51 in - ENE 20.7 mph - N/A   Clear
3:00 AM 31 °F - 4 °F 19%  in 6 mi ENE 20.7 mph - -  
3:55 AM 30.2 °F 16.2 °F -0.4 °F 27% 30.51 in - ENE 25.3 mph - N/A   Clear
4:00 AM 30 °F - -0 °F 14%  in 6 mi ENE 25.3 mph - -  
4:55 AM 30.2 °F 18.1 °F -7.6 °F 19% 30.54 in - ENE 18.4 mph - N/A   Clear
5:00 AM 30 °F - -7 °F 9%  in 6 mi ENE 18.4 mph - -  
5:55 AM 32.0 °F 20.5 °F -16.6 °F 12% 30.54 in - ENE 18.4 mph - N/A   Clear
6:00 AM 32 °F - -17 °F 4%  in 12 mi ENE 18.4 mph - -  
6:55 AM 33.8 °F 24.8 °F -16.6 °F 11% 30.54 in - ENE 12.7 mph - N/A   Clear
7:00 AM 35 °F - -17 °F 4%  in 37 mi ENE 12.7 mph - -  
7:55 AM 37.4 °F - -14.8 °F 10% 30.57 in - Calm Calm - N/A   Clear
8:00 AM 37 °F - -15 °F 4%  in 37 mi Calm Calm - -   Clear
8:55 AM 37.4 °F - -14.8 °F 10% 30.60 in - Calm Calm - N/A   Clear
9:00 AM 37 °F - -15 °F 4%  in 37 mi Calm Calm - -   Clear
9:55 AM 39.2 °F - 17.6 °F 42% 30.60 in - Calm Calm - N/A   Clear
10:00 AM 40 °F - 18 °F 27%  in 37 mi Calm Calm - -   Clear
10:55 AM 41.0 °F 37.1 °F -11.2 °F 11% 30.63 in - WSW 5.8 mph - N/A   Clear
11:00 AM 41 °F - -12 °F 4%  in 37 mi WSW 5.8 mph - -   Clear
11:55 AM 41.0 °F 37.1 °F -0.4 °F 18% 30.63 in - SW 5.8 mph - N/A   Clear
12:00 PM 40 °F - -0 °F 8%  in 37 mi SW 5.8 mph - -   Clear
12:55 PM 41.0 °F 36.4 °F 17.6 °F 39% 30.66 in - WSW 6.9 mph - N/A   Clear
1:00 PM 42 °F - 18 °F 25%  in 37 mi WSW 6.9 mph - -   Clear
1:55 PM 41.0 °F 37.1 °F 30.2 °F 65% 30.66 in - WSW 5.8 mph - N/A   Clear
2:00 PM 42 °F - 30 °F 52%  in 47 mi WSW 5.8 mph - -   Clear
2:55 PM 42.8 °F 39.3 °F 30.2 °F 61% 30.66 in - WSW 5.8 mph - N/A   Clear
3:00 PM 42 °F - 31 °F 53%  in 47 mi WSW 5.8 mph - -   Clear
3:55 PM 41.0 °F 37.1 °F 33.8 °F 76% 30.66 in 6.2 mi SW 5.8 mph - N/A   Partly Cloudy
4:00 PM 41 °F - 34 °F 69%  in 47 mi SW 5.8 mph - -   Scattered Clouds
4:55 PM 41.0 °F 38.0 °F 17.6 °F 39% 30.66 in 6.2 mi SW 4.6 mph - N/A   Partly Cloudy
5:00 PM 41 °F - 17 °F 25%  in 47 mi SW 4.6 mph - -   Scattered Clouds
5:55 PM 41.0 °F 38.0 °F 33.8 °F 76% 30.66 in 6.2 mi SSW 4.6 mph - N/A   Partly Cloudy
6:00 PM 41 °F - 34 °F 69%  in 47 mi SSW 4.6 mph - -   Scattered Clouds
6:55 PM 41.0 °F 37.1 °F 35.6 °F 81% 30.66 in 6.2 mi WSW 5.8 mph - N/A   Partly Cloudy
7:00 PM 41 °F - 35 °F 71%  in 47 mi WSW 5.8 mph - -   Scattered Clouds
7:55 PM 41.0 °F 38.0 °F 33.8 °F 76% 30.66 in 6.2 mi WSW 4.6 mph - N/A   Partly Cloudy
8:00 PM 41 °F - 34 °F 68%  in 47 mi WSW 4.6 mph - -   Scattered Clouds
8:55 PM 41.0 °F 34.7 °F 28.4 °F 61% 30.66 in - WSW 10.4 mph - N/A   Clear
9:00 PM 40 °F - 28 °F 50%  in 37 mi WSW 10.4 mph - -  
9:55 PM 37.4 °F 28.5 °F 28.4 °F 70% 30.66 in - SW 15.0 mph - N/A   Clear
10:00 PM 38 °F - 28 °F 57%  in 16 mi SW 15.0 mph - -  
10:55 PM 71.6 °F - 64.4 °F 78% 30.66 in - SW 17.3 mph - N/A   Clear
11:00 PM 72 °F - 64 °F 71%  in 6 mi SW 17.3 mph - -  
11:55 PM 37.4 °F 28.5 °F 30.2 °F 75% 30.66 in 6.2 mi SW 15.0 mph - N/A   Scattered Clouds